TimeAKDT,TemperatureF,Dew PointF,Humidity,Sea Level PressureIn,VisibilityMPH,Wind Direction,Wind SpeedMPH,Gust SpeedMPH,PrecipitationIn,Events,Conditions,WindDirDegrees,DateUTC
12:53 AM,44.1,32.0,63,29.47,10.0,NE,3.5,-,N/A,,Mostly Cloudy,40,2013-05-17 08:53:00
1:53 AM,33.1,27.0,78,29.46,10.0,South,5.8,-,N/A,,Clear,170,2013-05-17 09:53:00
2:53 AM,30.0,26.1,85,29.46,10.0,Calm,Calm,-,N/A,,Clear,0,2013-05-17 10:53:00
3:53 AM,28.9,25.0,85,29.45,10.0,Calm,Calm,-,N/A,,Clear,0,2013-05-17 11:53:00
4:53 AM,33.1,28.0,82,29.44,10.0,Calm,Calm,-,N/A,,Clear,0,2013-05-17 12:53:00
5:53 AM,46.9,24.1,41,29.43,10.0,SE,6.9,20.7,N/A,,Overcast,130,2013-05-17 13:53:00
6:53 AM,46.9,24.1,41,29.43,10.0,ESE,6.9,-,N/A,,Overcast,120,2013-05-17 14:53:00
7:53 AM,48.0,24.1,39,29.43,10.0,SE,8.1,-,N/A,,Overcast,140,2013-05-17 15:53:00
8:53 AM,50.0,24.1,36,29.42,10.0,Variable,6.9,-,N/A,,Scattered Clouds,0,2013-05-17 16:53:00
9:53 AM,51.1,24.1,35,29.41,10.0,SE,10.4,23.0,N/A,,Clear,140,2013-05-17 17:53:00
10:53 AM,53.1,25.0,34,29.40,10.0,SSE,11.5,27.6,N/A,,Clear,150,2013-05-17 18:53:00
11:53 AM,55.0,26.1,33,29.39,10.0,SE,10.4,23.0,N/A,,Clear,140,2013-05-17 19:53:00
12:53 PM,55.9,26.1,32,29.38,10.0,SSE,6.9,20.7,N/A,,Clear,150,2013-05-17 20:53:00
1:53 PM,57.0,26.1,30,29.39,10.0,SSE,9.2,21.9,N/A,,Clear,150,2013-05-17 21:53:00
2:53 PM,60.1,27.0,28,29.38,10.0,ESE,12.7,19.6,N/A,,Clear,120,2013-05-17 22:53:00
3:53 PM,60.1,26.1,27,29.38,10.0,SSE,12.7,20.7,N/A,,Clear,160,2013-05-17 23:53:00
4:53 PM,60.1,26.1,27,29.37,10.0,SSE,10.4,19.6,N/A,,Clear,150,2013-05-18 00:53:00
5:53 PM,62.1,26.1,25,29.35,10.0,SSE,11.5,21.9,N/A,,Partly Cloudy,150,2013-05-18 01:53:00
6:53 PM,60.1,25.0,26,29.34,10.0,Variable,4.6,-,N/A,,Clear,0,2013-05-18 02:53:00
7:53 PM,59.0,25.0,27,29.32,10.0,Calm,Calm,-,N/A,,Clear,0,2013-05-18 03:53:00
8:53 PM,55.9,28.9,36,29.32,10.0,Calm,Calm,-,N/A,,Clear,0,2013-05-18 04:53:00
9:53 PM,50.0,28.9,44,29.33,10.0,Calm,Calm,-,N/A,,Overcast,0,2013-05-18 05:53:00
10:53 PM,43.0,28.0,56,29.34,10.0,Calm,Calm,-,N/A,,Clear,0,2013-05-18 06:53:00
11:53 PM,42.1,27.0,55,29.34,10.0,Calm,Calm,-,N/A,,Overcast,0,2013-05-18 07:53:00